Location: Gu�tanj
(46.5431°N, 14.9692°E)
Time: 13:44:21
(UTC+00:00)

USA 306 - Pass Details

Date: 03 March 2021
Orbit: 564 x 577 km, 54.0° (Epoch: 17 April)

Event Time Altitude Azimuth Distance (km) Brightness Sun altitude
Rises 18:21:24 0° 287° (WNW) 2,773 8.1 -16.6°
Reaches altitude 10° 18:23:54 10° 298° (WNW) 1,873 6.6 -17.1°
Maximum altitude 18:27:39 29° 0° (N) 1,051 4.3 -17.7°
Enters shadow 18:29:30 21° 42° (NE) 1,299 4.4 -18.0°
